Regional Weather Roundup
Issued by NWS

Home | Current Version | Previous Version | Graphics & Text | Print | Product List | Glossary On
Versions: 1 2 3 4 5 6 7 8 9 10 11 12 13 14 15 16 17 18 19 20 21 22 23 24 25 26 27 28 29 30 31 32 33 34 35 36 37 38 39 40 41 42 43 44 45 46 47 48 49 50
000
ASUS43 KMKX 280521
RWRWI

WISCONSIN REGIONAL WEATHER ROUNDUP
NATIONAL WEATHER SERVICE MILWAUKEE/SULLIVAN WI
1100 PM CST MON FEB 27 2017

NOTE: "FAIR" INDICATES FEW OR NO CLOUDS BELOW 12,000 FEET WITH NO
SIGNIFICANT WEATHER AND/OR OBSTRUCTIONS TO VISIBILITY.

WIZ001-002-006>008-014>016-023>028-280600-
NORTHWEST WISCONSIN

CITY           SKY/WX    TMP DP  RH WIND       PRES   REMARKS
SUPERIOR ARPT  CLOUDY    31  28  90 NE6       29.91S WCI  25
ASHLAND        CLOUDY    23  22  96 CALM      29.90F FOG
HAYWARD        MOCLDY    35  19  52 S5        29.89F WCI  31
SIREN          CLOUDY    36  22  55 S5        29.88R WCI  32
CUMBERLAND     CLOUDY    32  23  69 SE3       29.87F
RICE LAKE      CLOUDY    34  22  61 E6        29.90F WCI  29
CHETEK         CLOUDY    30  22  72 CALM      29.90S
LADYSMITH      CLOUDY    35  25  67 SE6       29.92S WCI  30
EAU CLAIRE     MOCLDY    37  28  70 SE3       29.89F
MENOMONIE      PTCLDY    33  24  68 E3        29.89F
NEW RICHMOND   CLOUDY    34  24  68 SE3       29.86F
OSCEOLA        CLOUDY    37  25  61 SE8       29.88F WCI  31
$$

WIZ003>005-009-010-017-018-280600-
NORTH CENTRAL WISCONSIN

CITY           SKY/WX    TMP DP  RH WIND       PRES   REMARKS
MANITOWISH WTR CLOUDY    31  22  69 SE8       29.92F WCI  23
ARBOR VITAE    CLOUDY    32  22  68 SE6         N/A  WCI  26
WOODRUFF       CLOUDY    32  22  68 SE6         N/A  WCI  26
RHINELANDER    CLOUDY    32  25  75 SE3       29.95F
EAGLE RIVER    CLOUDY    30  22  72 SE3       29.94F
LAND O LAKES   CLOUDY    31  23  73 S5        29.96F WCI  26
PHILLIPS       MOCLDY    33  26  73 SE7       29.90F WCI  27
TOMAHAWK       CLOUDY    31  25  77 SE5       29.94F WCI  26
MEDFORD        CLOUDY    35  29  78 SE9G17    29.92F WCI  28
MERRILL        NOT AVBL
$$

WIZ029-030-035-036-043>047-280600-
CENTRAL WISCONSIN

CITY           SKY/WX    TMP DP  RH WIND       PRES   REMARKS
WAUSAU         CLOUDY    33  27  78 E6        29.96F WCI  28
MOSINEE        CLOUDY    34  30  86 E7        29.98F WCI  28
MARSHFIELD     CLOUDY    34  28  79 E5        29.94F WCI  30
STEVENS POINT  CLOUDY    33  29  85 E6        29.98F WCI  27
WAUPACA        CLOUDY    33  29  86 CALM      30.00F
WAUTOMA        CLOUDY    31  29  92 CALM      29.99F
WISC RAPIDS    CLOUDY    35  30  82 SE6       29.97F WCI  30
CAMP DOUGLAS   CLOUDY    38  31  76 SE6       29.94F WCI  33
$$

WIZ011>013-019>022-031-037>040-048>050-280600-
NORTHEAST WISCONSIN

CITY           SKY/WX    TMP DP  RH WIND       PRES   REMARKS
ANTIGO         CLOUDY    31  28  88 SE8       29.98S WCI  23
SHAWANO        CLOUDY    32  29  90 CALM      30.02F
OCONTO         CLOUDY    28  27  96 CALM      30.04S
STURGEON BAY   MOCLDY    35  34  96 SE8       30.06  WCI  29
GREEN BAY      CLOUDY    33  31  92 CALM      30.03F
MANITOWOC      CLOUDY    34  32  92 CALM      30.05F FOG
APPLETON       MOCLDY    34  28  80 SE6       30.00S WCI  29
CLINTONVILLE   CLOUDY    30  28  93 CALM      30.01F
OSHKOSH        MOCLDY    37  31  78 SE5       30.00F WCI  33
$$

WIZ032>034-041-042-053>061-280600-
SOUTHWEST WISCONSIN

CITY           SKY/WX    TMP DP  RH WIND       PRES   REMARKS
LA CROSSE      CLOUDY    40  32  73 SE7       29.91F
SPARTA         CLOUDY    34  31  87 CALM      29.94F
VIROQUA        CLOUDY    39  32  76 SE9       29.91F WCI  33
BOSCOBEL       LGT RAIN  40  33  76 CALM      29.94F
PRAIRIE DU CHI LGT RAIN  44  33  63 SE5       29.93S
PLATTEVILLE    CLOUDY    42  36  78 SE9       29.94F
$$

WIZ056-057-062-063-064-067-068-280600-
SOUTH CENTRAL WISCONSIN

CITY           SKY/WX    TMP DP  RH WIND       PRES   REMARKS
REEDSBURG      CLOUDY    38  32  78 E5        29.95F WCI  35
BARABOO/DELLS  CLOUDY    39  31  73 CALM      29.96F
LONE ROCK      CLOUDY    41  33  73 CALM      29.95F
MINERAL POINT  CLOUDY    45  34  65 SE9       29.93F
MADISON        CLOUDY    42  32  67 SE3       29.99S
MIDDLETON      CLOUDY    44  34  68 SE6       29.98F
WATERTOWN      MOCLDY    37  33  86 E6        30.00F WCI  32
MONROE         LGT RAIN  43  34  70 SE8       29.96F
JANESVILLE     CLOUDY    41  34  75 SE3       29.99R
$$

WIZ051-052-058>065-066-070>072-280600-
SOUTHEAST WISCONSIN

CITY           SKY/WX    TMP DP  RH WIND       PRES   REMARKS
MILWAUKEE      PTCLDY    43  34  70 S8        30.02F
WAUKESHA       PTCLDY    37  32  81 SE5       30.02F WCI  34
MILWAUKEE/TIMM PTCLDY    41  32  70 SE5       30.03F
RACINE         MOCLDY    41  34  76 S9        30.03F
KENOSHA        CLOUDY    43  35  73 SE13      30.02F
FOND DU LAC    CLOUDY    38  30  73 SE8       30.00F WCI  32
SHEBOYGAN      PTCLDY    31  30  96 CALM      30.03F FOG
WEST BEND      CLOUDY    32  32 100 CALM      30.02F
JUNEAU         CLOUDY    39  32  77 SE9       30.01F WCI  33
$$

LSZ147-162-280600-
LAKE SUPERIOR

STATION/POSITION TIME  TEMP    WIND        PRES    WAVE
                       AIR SEA DIR/SP/G            HT/PER
                 (UTC) (F)     (DEG/KT/KT) (MB)    (FT/S)
DEVILS ISLAND    0500   33      60/  6/  6 1013.8F
PORT WING        0430   29      40/  5/  8 1012.9S
SAXON HARBOR     0440   31     270/  4/  6 1012.5F
$$

LMZ867-665-643>646-280600-
LAKE MICHIGAN

STATION/POSITION TIME  TEMP    WIND        PRES    WAVE
                       AIR SEA DIR/SP/G            HT/PER
                 (UTC) (F)     (DEG/KT/KT) (MB)    (FT/S)
CHAMBERS ISLAND  0440   34      CALM  /  5 1017.3F
NORTHPORT PIER   0440   35     160/  6/  8 1017.9S
SISTER BAY       0435   35     150/  6/  8   N/A
ALGOMA LAKESHORE 0341          200/  5/  6   N/A
KEWAUNEE LAKESHO 0454   36      CALM  /  3 1017.2F
SHEBOYGAN LAKESH 0500   38     170/  4/  4 1017.7F
PORT WASHINGTON  0440   38      50/  3/  3 1018.3F
MILWAUKEE LAKESH 0500   40     150/  9/ 10   N/A
KENOSHA   LAKESH 0500   39     180/ 10/ 12 1016.9
$$

TC  - TEMPERATURE IN CELSIUS
VSB - VISIBILITY IN STATUTE MILES
WCI - WIND CHILL INDEX
HX  - HEAT INDEX





USA.gov is the U.S. government's official web portal to all federal, state and local government web resources and services.